Location: *
(49.6619°S, 177.4603°W)
Time: 12:58:53
(UTC+00:00)

Cosmos 1500 Rocket - Pass Details

Date: 31 January 2023
Orbit: 601 x 631 km, 82.5° (Epoch: 28 March)

Event Time Altitude Azimuth Distance (km) Brightness Sun altitude
Rises 10:15:53 0° 186° (S) 2,899 8.3 -18.9°
Reaches altitude 10° 10:18:11 10° 180° (S) 1,988 7.1 -19.0°
Maximum altitude 10:22:27 48° 105° (ESE) 804 4.0 -19.3°
Enters shadow 10:23:30 40° 63° (ENE) 918 4.0 -19.4°
